Location: Newark
(55.7108°N, 37.6306°E)
Time: 02:25:34
(UTC+00:00)

N. Korean satellite - Visible Passes

Search period start: 17 October 2019 00:00
Search period end: 27 October 2019 00:00
Orbit: 455 x 508 km, 97.2° (Epoch: 16 October)

Date Brightness Start Highest point End Pass type
(mag) Time Alt. Az. Time Alt. Az. Time Alt. Az.
17 Oct 9.1 02:54:32 10° NE 02:57:39 27° E 03:00:47 10° SSE visible
17 Oct 9.1 15:10:52 10° SSW 15:13:48 26° W 15:16:47 10° NW visible
18 Oct 10.0 02:29:49 10° NE 02:32:09 16° E 02:34:30 10° SE visible
19 Oct 10.5 15:56:21 10° W 15:57:01 10° W 15:57:42 10° WNW visible
20 Oct 8.2 03:11:48 10° NNE 03:15:15 41° E 03:18:42 10° S visible
20 Oct 9.8 15:28:59 10° SW 15:31:26 18° W 15:33:55 10° NW visible
21 Oct 9.3 02:46:49 10° NE 02:49:48 24° E 02:52:47 10° SSE visible
21 Oct 8.7 15:02:49 10° SSW 15:05:55 31° W 15:09:05 10° NNW visible
22 Oct 10.1 02:22:14 10° NE 02:24:16 14° E 02:26:17 10° ESE visible
23 Oct 7.2 03:29:10 10° NNE 03:32:47 63° ESE 03:36:25 10° S visible
23 Oct 10.2 15:47:31 10° WSW 15:49:05 13° W 15:50:40 10° WNW visible
24 Oct 8.5 03:04:01 10° NNE 03:07:23 35° E 03:10:46 10° SSE visible
24 Oct 9.5 15:20:46 10° SW 15:23:30 21° W 15:26:17 10° NW visible
25 Oct 9.6 02:39:05 10° NE 02:41:54 21° E 02:44:43 10° SE visible
25 Oct 8.3 14:54:46 10° SSW 14:58:01 37° W 15:01:20 10° NNW visible
26 Oct 10.3 02:14:45 10° ENE 02:16:20 12° E 02:17:54 10° ESE visible
